Location: Newark
(41.9000°N, 12.4833°E)
Time: 23:38:21
(UTC+00:00)

EO-88 - Pass Details

Date: 28 May 2019
Orbit: 484 x 494 km, 97.4° (Epoch: 20 June)

Event Time Altitude Azimuth Distance (km) Brightness Sun altitude
Exits shadow 21:51:53 12° 259° (W) 1,571 ? -24.2°
Maximum altitude 21:52:26 12° 269° (W) 1,555 ? -24.2°
Drops below altitude 10° 21:53:58 10° 294° (WNW) 1,696 ? -24.3°
Sets 21:57:12 0° 326° (NW) 2,585 ? -24.5°
